• In Belarus
  • List of Countries
  • For 7 days
  • Water Temperature
  • Satellite Maps
  • Weather Map
  • Weather Widgets
  • user-avatar
    Login

    Hourly Weather Tarin Kowt

    Today, 12 December, Wednesday

    Time Temperature Precipitation Wind Pressure Humidity
    00:00 +3°C° 0 mm 0 mps 615 mmHg 53%
    01:00 +2°C° 0 mm 0 mps 615 mmHg 54%
    02:00 +2°C° 0 mm 0 mps 615 mmHg 54%
    03:00 +2°C° 0 mm 0 mps 615 mmHg 54%
    04:00 +2°C° 0 mm 1 mps 615 mmHg 54%
    05:00 +2°C° 0 mm 1 mps 616 mmHg 54%
    06:00 +2°C° 0 mm 1 mps 616 mmHg 53%
    07:00 +2°C° 0 mm 1 mps 616 mmHg 52%
    08:00 +4°C° 0 mm 1 mps 617 mmHg 46%
    09:00 +4°C° 0 mm 0 mps 618 mmHg 41%
    10:00 +6°C° 0 mm 0 mps 618 mmHg 34%
    11:00 +8°C° 0 mm 1 mps 618 mmHg 32%
    12:00 +8°C° 0 mm 1 mps 618 mmHg 30%
    13:00 +9°C° 0 mm 1 mps 618 mmHg 29%
    14:00 +9°C° 0 mm 1 mps 618 mmHg 29%
    15:00 +9°C° 0 mm 1 mps 618 mmHg 29%
    16:00 +8°C° 0 mm 2 mps 618 mmHg 30%
    17:00 +8°C° 0 mm 1 mps 618 mmHg 33%
    18:00 +7°C° 0 mm 1 mps 618 mmHg 37%
    19:00 +5°C° 0 mm 1 mps 618 mmHg 40%
    20:00 +5°C° 0 mm 1 mps 618 mmHg 42%
    21:00 +4°C° 0 mm 0 mps 618 mmHg 43%
    22:00 +3°C° 0 mm 0 mps 618 mmHg 45%
    23:00 +3°C° 0 mm 0 mps 618 mmHg 45%

    Tomorrow, 13 December, Thursday

    Time Temperature Precipitation Wind Pressure Humidity
    00:00 +2°C° 0 mm 0 mps 618 mmHg 46%
    01:00 +2°C° 0 mm 0 mps 617 mmHg 47%
    02:00 +2°C° 0 mm 0 mps 617 mmHg 47%
    03:00 +1°C° 0 mm 0 mps 617 mmHg 47%
    04:00 +1°C° 0 mm 0 mps 617 mmHg 47%
    05:00 +1°C° 0 mm 0 mps 618 mmHg 46%
    06:00 +1°C° 0 mm 0 mps 618 mmHg 46%
    07:00 +1°C° 0 mm 0 mps 618 mmHg 45%
    08:00 +3°C° 0 mm 0 mps 619 mmHg 40%
    09:00 +5°C° 0 mm 0 mps 620 mmHg 34%
    10:00 +7°C° 0 mm 0 mps 621 mmHg 29%
    11:00 +8°C° 0 mm 1 mps 620 mmHg 28%
    12:00 +9°C° 0 mm 1 mps 620 mmHg 26%
    13:00 +10°C° 0 mm 1 mps 620 mmHg 25%
    14:00 +10°C° 0 mm 1 mps 620 mmHg 26%
    15:00 +9°C° 0 mm 1 mps 620 mmHg 27%
    16:00 +9°C° 0 mm 1 mps 619 mmHg 28%
    17:00 +8°C° 0 mm 1 mps 619 mmHg 32%
    18:00 +7°C° 0 mm 1 mps 619 mmHg 35%
    19:00 +5°C° 0 mm 0 mps 619 mmHg 39%
    20:00 +4°C° 0 mm 0 mps 619 mmHg 40%
    21:00 +4°C° 0 mm 0 mps 619 mmHg 41%
    22:00 +3°C° 0 mm 0 mps 619 mmHg 43%
    23:00 +3°C° 0 mm 0 mps 618 mmHg 43%

    Day after tomorrow, 14 December, Friday

    Time Temperature Precipitation Wind Pressure Humidity
    00:00 +2°C° 0 mm 0 mps 618 mmHg 43%
    01:00 +2°C° 0 mm 0 mps 618 mmHg 44%
    02:00 +2°C° 0 mm 0 mps 618 mmHg 43%
    03:00 +3°C° 0 mm 1 mps 618 mmHg 43%
    04:00 +2°C° 0 mm 1 mps 617 mmHg 42%
    05:00 +2°C° 0 mm 1 mps 618 mmHg 42%
    06:00 +2°C° 0 mm 1 mps 618 mmHg 41%
    07:00 +2°C° 0 mm 1 mps 618 mmHg 40%
    08:00 +5°C° 0 mm 1 mps 619 mmHg 35%
    09:00 +7°C° 0 mm 1 mps 620 mmHg 29%
    10:00 +9°C° 0 mm 1 mps 621 mmHg 24%
    11:00 +8°C° 0 mm 0 mps 621 mmHg 23%
    12:00 +9°C° 0 mm 0 mps 621 mmHg 21%
    13:00 +10°C° 0 mm 0 mps 620 mmHg 20%
    14:00 +11°C° 0 mm 1 mps 620 mmHg 21%
    15:00 +10°C° 0 mm 1 mps 620 mmHg 23%
    16:00 +10°C° 0 mm 1 mps 620 mmHg 25%
    17:00 +9°C° 0 mm 1 mps 620 mmHg 28%
    18:00 +6°C° 0 mm 0 mps 619 mmHg 31%
    19:00 +5°C° 0 mm 0 mps 619 mmHg 34%
    20:00 +5°C° 0 mm 0 mps 619 mmHg 34%
    21:00 +4°C° 0 mm 0 mps 619 mmHg 35%
    22:00 +4°C° 0 mm 0 mps 619 mmHg 36%
    23:00 +3°C° 0 mm 0 mps 618 mmHg 36%

    15 December, Saturday

    Time Temperature Precipitation Wind Pressure Humidity
    00:00 +3°C° 0 mm 0 mps 618 mmHg 36%
    01:00 +3°C° 0 mm 0 mps 618 mmHg 36%
    02:00 +3°C° 0 mm 1 mps 618 mmHg 36%
    03:00 +3°C° 0 mm 1 mps 617 mmHg 36%
    04:00 +3°C° 0 mm 1 mps 617 mmHg 35%
    05:00 +3°C° 0 mm 1 mps 617 mmHg 35%
    06:00 +3°C° 0 mm 1 mps 618 mmHg 34%
    07:00 +3°C° 0 mm 1 mps 618 mmHg 33%
    08:00 +5°C° 0 mm 1 mps 619 mmHg 28%
    09:00 +7°C° 0 mm 1 mps 620 mmHg 23%
    10:00 +10°C° 0 mm 1 mps 621 mmHg 18%
    11:00 +10°C° 0 mm 1 mps 621 mmHg 17%
    12:00 +10°C° 0 mm 0 mps 621 mmHg 16%
    13:00 +11°C° 0 mm 0 mps 620 mmHg 15%
    14:00 +10°C° 0 mm 0 mps 620 mmHg 17%
    15:00 +10°C° 0 mm 0 mps 620 mmHg 19%
    16:00 +9°C° 0 mm 0 mps 620 mmHg 21%
    17:00 +8°C° 0 mm 0 mps 619 mmHg 23%
    18:00 +7°C° 0 mm 0 mps 619 mmHg 25%
    19:00 +5°C° 0 mm 0 mps 619 mmHg 27%
    20:00 +5°C° 0 mm 0 mps 619 mmHg 27%
    21:00 +4°C° 0 mm 0 mps 619 mmHg 27%
    22:00 +4°C° 0 mm 0 mps 619 mmHg 27%
    23:00 +5°C° 0 mm 1 mps 619 mmHg 26%

    16 December, Sunday

    Time Temperature Precipitation Wind Pressure Humidity
    00:00 +4°C° 0 mm 1 mps 619 mmHg 26%
    01:00 +4°C° 0 mm 1 mps 618 mmHg 26%
    02:00 +4°C° 0 mm 1 mps 618 mmHg 25%
    03:00 +4°C° 0 mm 1 mps 618 mmHg 25%
    04:00 +3°C° 0 mm 1 mps 618 mmHg 25%
    05:00 +3°C° 0 mm 1 mps 618 mmHg 25%
    06:00 +3°C° 0 mm 1 mps 618 mmHg 24%
    07:00 +3°C° 0 mm 1 mps 619 mmHg 24%
    08:00 +6°C° 0 mm 1 mps 620 mmHg 20%
    09:00 +8°C° 0 mm 1 mps 621 mmHg 17%
    10:00 +10°C° 0 mm 1 mps 622 mmHg 13%
    11:00 +11°C° 0 mm 1 mps 622 mmHg 12%
    12:00 +12°C° 0 mm 1 mps 622 mmHg 12%
    13:00 +11°C° 0 mm 0 mps 621 mmHg 11%
    14:00 +11°C° 0 mm 0 mps 621 mmHg 13%
    15:00 +10°C° 0 mm 0 mps 620 mmHg 15%
    16:00 +9°C° 0 mm 0 mps 620 mmHg 17%
    17:00 +8°C° 0 mm 0 mps 620 mmHg 19%
    18:00 +7°C° 0 mm 0 mps 619 mmHg 20%
    19:00 +5°C° 0 mm 0 mps 619 mmHg 21%
    20:00 +5°C° 0 mm 0 mps 619 mmHg 21%
    21:00 +4°C° 0 mm 0 mps 619 mmHg 21%
    22:00 +4°C° 0 mm 0 mps 619 mmHg 22%
    23:00 +5°C° 0 mm 1 mps 619 mmHg 21%

    17 December, Monday

    Time Temperature Precipitation Wind Pressure Humidity
    00:00 +4°C° 0 mm 1 mps 618 mmHg 21%
    01:00 +4°C° 0 mm 1 mps 618 mmHg 21%
    02:00 +4°C° 0 mm 1 mps 618 mmHg 21%
    03:00 +3°C° 0 mm 1 mps 618 mmHg 21%
    04:00 +3°C° 0 mm 1 mps 617 mmHg 21%
    05:00 +3°C° 0 mm 1 mps 618 mmHg 21%
    06:00 +3°C° 0 mm 1 mps 618 mmHg 21%
    07:00 +3°C° 0 mm 1 mps 618 mmHg 21%
    08:00 +5°C° 0 mm 1 mps 619 mmHg 18%
    09:00 +8°C° 0 mm 1 mps 621 mmHg 15%
    10:00 +9°C° 0 mm 0 mps 622 mmHg 12%
    11:00 +10°C° 0 mm 0 mps 622 mmHg 11%
    12:00 +11°C° 0 mm 0 mps 621 mmHg 10%
    13:00 +11°C° 0 mm 0 mps 621 mmHg 10%
    14:00 +11°C° 0 mm 0 mps 621 mmHg 12%
    15:00 +10°C° 0 mm 0 mps 620 mmHg 14%
    16:00 +9°C° 0 mm 0 mps 620 mmHg 17%
    17:00 +8°C° 0 mm 0 mps 619 mmHg 18%
    18:00 +7°C° 0 mm 0 mps 619 mmHg 19%
    19:00 +5°C° 0 mm 0 mps 619 mmHg 20%
    20:00 +5°C° 0 mm 0 mps 619 mmHg 20%
    21:00 +4°C° 0 mm 0 mps 619 mmHg 20%
    22:00 +4°C° 0 mm 0 mps 618 mmHg 20%
    23:00 +3°C° 0 mm 0 mps 618 mmHg 20%
    Show more